Location: ???????
(55.3754°N, 39.3545°E)
Time: 10:03:54
(UTC+00:00)

Cosmos 1943 - Pass Details

Date: 14 April 2026
Orbit: 832 x 847 km, 71.0° (Epoch: 19 May)

Event Time Altitude Azimuth Distance (km) Brightness Sun altitude
Exits shadow 20:52:28 65° 173° (S) 930 3.1 -24.7°
Maximum altitude 20:53:11 75° 120° (ESE) 882 3.1 -24.7°
Drops below altitude 10° 20:58:52 10° 36° (NE) 2,477 6.2 -24.8°
Sets 21:01:19 0° 35° (NE) 3,414 7.1 -24.8°
